This is the latest recevied weather packets stored in our database for station/object FW0690. If no packets are shown the sender has not sent any weather packets the latest 10 day(s).
| Time | Temp. | Humidity | Pressure | Rain* | Wind** | Luminosity | Snow |
|---|---|---|---|---|---|---|---|
| 1777641273 | 20.56° C | 25% | 1022.8 hPa | - | - | 313 W/m² | - |
| 1777640913 | 19.44° C | 25% | 1022.8 hPa | - | - | 169 W/m² | - |
| 1777640554 | 18.33° C | 25% | 1022.8 hPa | - | - | 169 W/m² | - |
| 1777640193 | 17.78° C | 26% | 1022.9 hPa | - | - | 169 W/m² | - |
| 1777639833 | 17.22° C | 26% | 1022.8 hPa | - | - | 96 W/m² | - |
| 1777639473 | 16.11° C | 26% | 1022.9 hPa | - | - | 77 W/m² | - |
| 1777639113 | 17.78° C | 26% | 1023 hPa | - | - | 68 W/m² | - |
| 1777638753 | 18.33° C | 26% | 1023 hPa | - | - | 59 W/m² | - |
| 1777638393 | 18.89° C | 27% | 1023.1 hPa | - | - | 52 W/m² | - |
| 1777638033 | 17.22° C | 28% | 1023.1 hPa | - | - | 63 W/m² | - |
| 1777637673 | 14.44° C | 28% | 1023.2 hPa | - | - | 54 W/m² | - |
| 1777637313 | 14.44° C | 28% | 1023.2 hPa | - | - | 38 W/m² | - |
| 1777636953 | 13.89° C | 28% | 1023.2 hPa | - | - | 38 W/m² | - |
| 1777636593 | 13.89° C | 27% | 1023.3 hPa | - | - | 37 W/m² | - |
| 1777636233 | 13.33° C | 28% | 1023.3 hPa | - | - | 42 W/m² | - |
| 1777635873 | 13.33° C | 28% | 1023.3 hPa | - | - | 32 W/m² | - |
| 1777635513 | 13.89° C | 27% | 1023.3 hPa | - | - | 39 W/m² | - |
| 1777635153 | 13.89° C | 27% | 1023.3 hPa | - | - | 36 W/m² | - |
| 1777634793 | 13.89° C | 27% | 1023.4 hPa | - | - | 33 W/m² | - |
| 1777634433 | 15° C | 27% | 1023.4 hPa | - | - | 43 W/m² | - |
| 1777634073 | 15° C | 28% | 1023.3 hPa | - | - | 55 W/m² | - |
| 1777633713 | 15° C | 28% | 1023.4 hPa | - | - | 60 W/m² | - |
| 1777633353 | 13.89° C | 28% | 1023.4 hPa | - | - | 51 W/m² | - |
| 1777632993 | 13.89° C | 28% | 1023.5 hPa | - | - | 42 W/m² | - |
| 1777632633 | 13.33° C | 28% | 1023.5 hPa | - | - | 34 W/m² | - |
* Rain since midnight (hover to see other rain measurements)
** Current wind speed in m/s (hover to see current wind gust speed)